• In Belarus
  • List of Countries
  • For 7 days
  • Water Temperature
  • Satellite Maps
  • Weather Map
  • Weather Widgets
  • user-avatar
    Login

    Hourly Weather Channarayapatna

    Today, 20 September, Thursday

    Time Temperature Precipitation Wind Pressure Humidity
    00:00 +21°C° 0 mm 3 mps 684 mmHg 87%
    01:00 +20°C° 0 mm 3 mps 684 mmHg 87%
    02:00 +20°C° 0 mm 3 mps 684 mmHg 88%
    03:00 +20°C° 0 mm 2 mps 684 mmHg 88%
    04:00 +19°C° 0 mm 2 mps 684 mmHg 88%
    05:00 +19°C° 0 mm 2 mps 683 mmHg 88%
    06:00 +20°C° 0 mm 2 mps 684 mmHg 81%
    07:00 +21°C° 0 mm 2 mps 684 mmHg 75%
    08:00 +24°C° 0 mm 3 mps 685 mmHg 68%
    09:00 +26°C° 0 mm 3 mps 685 mmHg 62%
    10:00 +27°C° 0 mm 3 mps 685 mmHg 56%
    11:00 +29°C° 0 mm 3 mps 685 mmHg 49%
    12:00 +30°C° 0.1 mm 3 mps 685 mmHg 48%
    13:00 +30°C° 0.1 mm 3 mps 684 mmHg 47%
    14:00 +31°C° 0.1 mm 3 mps 684 mmHg 45%
    15:00 +30°C° 0.1 mm 4 mps 684 mmHg 51%
    16:00 +29°C° 0.1 mm 4 mps 684 mmHg 57%
    17:00 +27°C° 0.1 mm 4 mps 684 mmHg 63%
    18:00 +26°C° 0.3 mm 4 mps 684 mmHg 70%
    19:00 +25°C° 0.3 mm 4 mps 684 mmHg 76%
    20:00 +23°C° 0.3 mm 4 mps 684 mmHg 83%
    21:00 +22°C° 0.2 mm 4 mps 684 mmHg 84%
    22:00 +22°C° 0.2 mm 4 mps 684 mmHg 85%
    23:00 +22°C° 0.2 mm 4 mps 684 mmHg 86%

    Tomorrow, 21 September, Friday

    Time Temperature Precipitation Wind Pressure Humidity
    00:00 +22°C° 0.2 mm 4 mps 684 mmHg 87%
    01:00 +22°C° 0.2 mm 4 mps 684 mmHg 87%
    02:00 +21°C° 0.2 mm 4 mps 683 mmHg 88%
    03:00 +21°C° 0.2 mm 4 mps 683 mmHg 88%
    04:00 +21°C° 0.2 mm 4 mps 683 mmHg 88%
    05:00 +21°C° 0.2 mm 3 mps 683 mmHg 88%
    06:00 +21°C° 0 mm 4 mps 683 mmHg 86%
    07:00 +22°C° 0 mm 4 mps 684 mmHg 84%
    08:00 +22°C° 0 mm 4 mps 685 mmHg 81%
    09:00 +23°C° 0.1 mm 5 mps 685 mmHg 76%
    10:00 +25°C° 0.1 mm 5 mps 685 mmHg 71%
    11:00 +26°C° 0.1 mm 5 mps 685 mmHg 66%
    12:00 +26°C° 0.2 mm 5 mps 685 mmHg 66%
    13:00 +26°C° 0.2 mm 5 mps 684 mmHg 67%
    14:00 +25°C° 0.2 mm 5 mps 684 mmHg 67%
    15:00 +25°C° 0.1 mm 5 mps 684 mmHg 69%
    16:00 +25°C° 0.1 mm 5 mps 684 mmHg 71%
    17:00 +23°C° 0.1 mm 4 mps 684 mmHg 73%
    18:00 +23°C° 0 mm 4 mps 684 mmHg 76%
    19:00 +22°C° 0 mm 4 mps 685 mmHg 80%
    20:00 +21°C° 0 mm 3 mps 685 mmHg 84%
    21:00 +21°C° 0 mm 3 mps 685 mmHg 85%
    22:00 +20°C° 0 mm 3 mps 685 mmHg 87%
    23:00 +20°C° 0 mm 3 mps 685 mmHg 89%

    Day after tomorrow, 22 September, Saturday

    Time Temperature Precipitation Wind Pressure Humidity
    00:00 +20°C° 0 mm 3 mps 685 mmHg 89%
    01:00 +20°C° 0 mm 3 mps 685 mmHg 89%
    02:00 +20°C° 0 mm 3 mps 684 mmHg 89%
    03:00 +19°C° 0 mm 3 mps 684 mmHg 90%
    04:00 +19°C° 0 mm 3 mps 684 mmHg 91%
    05:00 +19°C° 0 mm 2 mps 684 mmHg 93%
    06:00 +20°C° 0 mm 3 mps 685 mmHg 88%
    07:00 +21°C° 0 mm 4 mps 686 mmHg 84%
    08:00 +22°C° 0 mm 4 mps 687 mmHg 80%
    09:00 +25°C° 0 mm 4 mps 687 mmHg 70%
    10:00 +27°C° 0 mm 5 mps 687 mmHg 60%
    11:00 +28°C° 0 mm 5 mps 687 mmHg 50%
    12:00 +29°C° 0 mm 5 mps 687 mmHg 48%
    13:00 +30°C° 0 mm 5 mps 686 mmHg 47%
    14:00 +30°C° 0 mm 5 mps 686 mmHg 46%
    15:00 +29°C° 0.1 mm 5 mps 686 mmHg 51%
    16:00 +29°C° 0.1 mm 4 mps 686 mmHg 56%
    17:00 +28°C° 0.1 mm 4 mps 685 mmHg 62%
    18:00 +26°C° 0.1 mm 4 mps 686 mmHg 69%
    19:00 +25°C° 0.1 mm 3 mps 686 mmHg 76%
    20:00 +22°C° 0.1 mm 3 mps 687 mmHg 83%
    21:00 +22°C° 0 mm 3 mps 687 mmHg 85%
    22:00 +21°C° 0 mm 2 mps 687 mmHg 87%
    23:00 +21°C° 0 mm 2 mps 687 mmHg 90%

    23 September, Sunday

    Time Temperature Precipitation Wind Pressure Humidity
    00:00 +20°C° 0 mm 2 mps 687 mmHg 90%
    01:00 +20°C° 0 mm 2 mps 686 mmHg 91%
    02:00 +20°C° 0 mm 2 mps 686 mmHg 91%
    03:00 +20°C° 0 mm 2 mps 686 mmHg 91%
    04:00 +20°C° 0 mm 1 mps 686 mmHg 90%
    05:00 +20°C° 0 mm 1 mps 686 mmHg 90%
    06:00 +22°C° 0 mm 1 mps 687 mmHg 84%
    07:00 +23°C° 0 mm 1 mps 688 mmHg 78%
    08:00 +24°C° 0 mm 1 mps 688 mmHg 72%
    09:00 +25°C° 0 mm 1 mps 688 mmHg 65%
    10:00 +27°C° 0 mm 1 mps 688 mmHg 58%
    11:00 +29°C° 0 mm 1 mps 689 mmHg 51%
    12:00 +29°C° 0 mm 2 mps 688 mmHg 50%
    13:00 +30°C° 0 mm 2 mps 687 mmHg 48%
    14:00 +30°C° 0 mm 2 mps 687 mmHg 46%
    15:00 +30°C° 0.1 mm 2 mps 687 mmHg 52%
    16:00 +29°C° 0.1 mm 2 mps 687 mmHg 57%
    17:00 +28°C° 0.1 mm 2 mps 686 mmHg 62%
    18:00 +27°C° 0.2 mm 3 mps 687 mmHg 68%
    19:00 +26°C° 0.2 mm 3 mps 687 mmHg 75%
    20:00 +25°C° 0.2 mm 3 mps 687 mmHg 81%
    21:00 +24°C° 0.2 mm 3 mps 687 mmHg 83%
    22:00 +24°C° 0.2 mm 2 mps 687 mmHg 84%
    23:00 +23°C° 0.2 mm 2 mps 687 mmHg 86%

    24 September, Monday

    Time Temperature Precipitation Wind Pressure Humidity
    00:00 +23°C° 0 mm 2 mps 687 mmHg 87%
    01:00 +23°C° 0 mm 2 mps 686 mmHg 88%
    02:00 +22°C° 0 mm 1 mps 686 mmHg 89%
    03:00 +22°C° 0 mm 1 mps 686 mmHg 89%
    04:00 +22°C° 0 mm 1 mps 686 mmHg 89%
    05:00 +22°C° 0 mm 1 mps 686 mmHg 90%
    06:00 +23°C° 0 mm 1 mps 687 mmHg 84%
    07:00 +22°C° 0 mm 0 mps 687 mmHg 79%
    08:00 +23°C° 0 mm 0 mps 688 mmHg 73%
    09:00 +27°C° 0 mm 1 mps 688 mmHg 68%
    10:00 +28°C° 0 mm 1 mps 688 mmHg 62%
    11:00 +30°C° 0 mm 1 mps 688 mmHg 56%
    12:00 +30°C° 0.2 mm 1 mps 687 mmHg 54%
    13:00 +30°C° 0.2 mm 1 mps 687 mmHg 53%
    14:00 +31°C° 0.2 mm 1 mps 686 mmHg 52%
    15:00 +30°C° 1.4 mm 2 mps 686 mmHg 57%
    16:00 +29°C° 1.4 mm 2 mps 686 mmHg 62%
    17:00 +28°C° 1.4 mm 2 mps 686 mmHg 67%
    18:00 +27°C° 1.2 mm 2 mps 686 mmHg 72%
    19:00 +26°C° 1.2 mm 2 mps 687 mmHg 77%
    20:00 +25°C° 1.2 mm 1 mps 687 mmHg 82%
    21:00 +25°C° 0.8 mm 1 mps 687 mmHg 82%
    22:00 +25°C° 0.8 mm 1 mps 687 mmHg 82%
    23:00 +24°C° 0.8 mm 1 mps 687 mmHg 83%

    25 September, Tuesday

    Time Temperature Precipitation Wind Pressure Humidity
    00:00 +24°C° 0.5 mm 1 mps 687 mmHg 83%
    01:00 +24°C° 0.5 mm 1 mps 686 mmHg 84%
    02:00 +24°C° 0.5 mm 1 mps 686 mmHg 84%
    03:00 +24°C° 0 mm 1 mps 686 mmHg 85%
    04:00 +23°C° 0 mm 1 mps 686 mmHg 85%
    05:00 +23°C° 0 mm 1 mps 686 mmHg 86%
    06:00 +24°C° 0 mm 1 mps 686 mmHg 82%
    07:00 +25°C° 0 mm 1 mps 687 mmHg 77%
    08:00 +26°C° 0 mm 1 mps 688 mmHg 73%
    09:00 +27°C° 0.1 mm 1 mps 688 mmHg 68%
    10:00 +29°C° 0.1 mm 2 mps 688 mmHg 63%
    11:00 +30°C° 0.1 mm 2 mps 688 mmHg 57%
    12:00 +30°C° 1.3 mm 2 mps 687 mmHg 57%
    13:00 +30°C° 1.3 mm 2 mps 686 mmHg 57%
    14:00 +30°C° 1.3 mm 2 mps 685 mmHg 57%
    15:00 +29°C° 3 mm 2 mps 685 mmHg 62%
    16:00 +29°C° 3 mm 2 mps 685 mmHg 67%
    17:00 +28°C° 3 mm 1 mps 685 mmHg 72%
    18:00 +27°C° 3 mm 1 mps 686 mmHg 76%
    19:00 +26°C° 3 mm 1 mps 686 mmHg 80%
    20:00 +25°C° 3 mm 1 mps 687 mmHg 83%
    21:00 +25°C° 0.8 mm 1 mps 687 mmHg 83%
    22:00 +25°C° 0.8 mm 1 mps 687 mmHg 83%
    23:00 +25°C° 0.8 mm 1 mps 687 mmHg 83%
    Show more